Voltar ao catálogo

OPS 4682 DEB

AtivoPO
NORAD 38445·DEBRIS·🇺🇸 United States

Lançado Apr 3, 1965 de Vandenberg Space Force Base

Loading…

Próximas Passagens (próximas 24 horas)

TLE

AtualizadoSource: Space-Track

Época: Sep 12, 2026, 18:05 UTC

1 38445U 65027FA  26255.75356714  .00000231  00000-0  79385-3 0  9993
2 38445  90.2472   8.5383 0028285 332.6754  27.2877 12.95433408615365

Acompanhe OPS 4682 DEB em tempo real com AllMySat

Download on the App Store